ARG1365 SPJC-SABE

Flight info

Callsign ARG1365
Flight time N/A
Altitude 35000
Route SCO UL550 ALDAX/N0458F370 UL550 LOA UM543 CBA UW24 SNT
Aircraft B38M/M-SDE1FGHILORVWXY/HB1

Departure

Time N/A
Airport Jorge Chávez International Airport (SPJC)

Arrival

Time 2026-05-06 20:48
Airport Aeroparque Jorge Newbery (SABE)
Time Latitude Longitude Altitude Speed Heading
2026-05-06 20:40 -34.32713 -58.84521 4609 ft 261 kts 115°
2026-05-06 20:40 -34.33697 -58.82670 4625 ft 258 kts 120°
2026-05-06 20:41 -34.34632 -58.80888 4582 ft 243 kts 118°
2026-05-06 20:41 -34.35500 -58.79186 4409 ft 234 kts 117°
2026-05-06 20:41 -34.36331 -58.77514 4160 ft 231 kts 116°
2026-05-06 20:41 -34.37146 -58.75849 3938 ft 229 kts 115°
2026-05-06 20:42 -34.37947 -58.74195 3769 ft 226 kts 114°
2026-05-06 20:42 -34.38732 -58.72561 3658 ft 223 kts 114°
2026-05-06 20:42 -34.39505 -58.70948 3571 ft 221 kts 114°
2026-05-06 20:42 -34.40274 -58.69338 3482 ft 221 kts 114°
2026-05-06 20:43 -34.41039 -58.67736 3438 ft 216 kts 114°
2026-05-06 20:43 -34.41778 -58.66186 3400 ft 209 kts 114°
2026-05-06 20:43 -34.42493 -58.64685 3398 ft 202 kts 112°
2026-05-06 20:43 -34.43189 -58.63222 3357 ft 199 kts 113°
2026-05-06 20:44 -34.43992 -58.61842 3248 ft 203 kts 127°
2026-05-06 20:44 -34.44974 -58.60609 3128 ft 203 kts 130°
2026-05-06 20:44 -34.45939 -58.59385 3039 ft 193 kts 123°
2026-05-06 20:44 -34.46706 -58.58104 2908 ft 192 kts 117°
2026-05-06 20:45 -34.47449 -58.56781 2732 ft 188 kts 116°
2026-05-06 20:45 -34.48168 -58.55492 2484 ft 182 kts 117°
2026-05-06 20:45 -34.48863 -58.54244 2262 ft 175 kts 117°
2026-05-06 20:45 -34.49539 -58.53031 2045 ft 172 kts 117°
2026-05-06 20:46 -34.50206 -58.51834 1815 ft 170 kts 117°
2026-05-06 20:46 -34.50864 -58.50655 1613 ft 168 kts 118°
2026-05-06 20:46 -34.51516 -58.49486 1391 ft 166 kts 119°
2026-05-06 20:46 -34.52157 -58.48334 1172 ft 164 kts 118°
2026-05-06 20:47 -34.52789 -58.47202 958 ft 161 kts 117°
2026-05-06 20:47 -34.53409 -58.46095 748 ft 156 kts 121°
2026-05-06 20:47 -34.53997 -58.45027 583 ft 147 kts 121°
2026-05-06 20:47 -34.54544 -58.44050 377 ft 137 kts 121°
2026-05-06 20:48 -34.55075 -58.43106 165 ft 133 kts 121°
2026-05-06 20:48 -34.55575 -58.42205 32 ft 124 kts 124°
2026-05-06 20:48 -34.55985 -58.41471 27 ft 82 kts 124°
2026-05-06 20:48 -34.56219 -58.41050 29 ft 43 kts 124°
2026-05-06 20:49 -34.56386 -58.40751 28 ft 43 kts 123°
2026-05-06 20:49 -34.56484 -58.40568 28 ft 15 kts 113°
2026-05-06 20:49 -34.56498 -58.40451 28 ft 11 kts 107°
2026-05-06 20:49 -34.56517 -58.40398 28 ft 6 kts 83°
2026-05-06 20:50 -34.56500 -58.40386 28 ft 3 kts 358°
2026-05-06 20:50 -34.56461 -58.40418 28 ft 7 kts 316°
2026-05-06 20:50 -34.56425 -58.40459 28 ft 7 kts 317°
2026-05-06 20:50 -34.56382 -58.40506 28 ft 9 kts 318°
2026-05-06 20:51 -34.56339 -58.40552 28 ft 0 kts 318°
2026-05-06 20:51 -34.56339 -58.40553 28 ft 0 kts 318°
2026-05-06 20:53 -34.56338 -58.40553 28 ft 1 kts 318°
2026-05-06 20:53 -34.56321 -58.40573 28 ft 6 kts 316°
2026-05-06 20:53 -34.56286 -58.40625 28 ft 9 kts 304°
2026-05-06 20:53 -34.56248 -58.40694 28 ft 9 kts 303°
2026-05-06 20:54 -34.56208 -58.40766 28 ft 11 kts 304°
2026-05-06 20:54 -34.56175 -58.40847 28 ft 11 kts 270°
2026-05-06 20:54 -34.56146 -58.40940 28 ft 13 kts 301°
2026-05-06 20:54 -34.56085 -58.41044 28 ft 18 kts 307°
2026-05-06 20:55 -34.55999 -58.41181 28 ft 22 kts 307°
2026-05-06 20:55 -34.55914 -58.41329 28 ft 19 kts 299°
2026-05-06 20:55 -34.55851 -58.41476 28 ft 20 kts 297°
2026-05-06 20:55 -34.55820 -58.41551 28 ft 9 kts 297°
2026-05-06 20:56 -34.55788 -58.41596 28 ft 6 kts 359°
2026-05-06 20:56 -34.55745 -58.41582 28 ft 6 kts 357°
2026-05-06 20:56 -34.55710 -58.41616 28 ft 8 kts 299°
2026-05-06 20:56 -34.55680 -58.41667 28 ft 4 kts 339°
2026-05-06 20:57 -34.55653 -58.41652 28 ft 6 kts 36°
2026-05-06 20:57 -34.55631 -58.41634 28 ft 0 kts 35°